Tracking 30995 objects as of 7-Jul-2025
HD Live streaming from Space Station
objects crossing your sky now

GEESAT 3-03

Track GEESAT 3-03 now!
10-day predictions


NORAD ID: 61013
Int'l Code: 2024-159C
Perigee: 590.2 km
Apogee: 599.2 km
Inclination: 50.0 °
Period: 96.4 minutes
Semi major axis: 6965 km
RCS: Unknown
Launch date: September 5, 2024
Source: People's Republic of China (PRC)
Launch site: Taiyaun Space Center, China (TSC)
Your satellite tracking list
Your tracking list is empty




NASA's NSSDC Master Catalog

Two Line Element Set (TLE):
1 61013U 24159C   25187.69773735  .00002589  00000-0  26738-3 0  9995
2 61013  49.9928 249.8105 0006484 344.3797  15.6944 14.93330296 46168
Source of the keplerian elements: AFSPC